This is the latest recevied weather packets stored in our database for station/object SP9TKN-1. If no packets are shown the sender has not sent any weather packets the latest 10 day(s).
| Time | Temp. | Humidity | Pressure | Rain* | Wind** | Luminosity | Snow |
|---|---|---|---|---|---|---|---|
| 1777456857 | 11.11° C | 23% | 1027.1 hPa | - | - | - | - |
| 1777455956 | 11.67° C | 24% | 1027.1 hPa | - | - | - | - |
| 1777455056 | 11.11° C | 26% | 1027.1 hPa | - | - | - | - |
| 1777454156 | 10.56° C | 27% | 1027.1 hPa | - | - | - | - |
| 1777453256 | 10.56° C | 27% | 1027.1 hPa | - | - | - | - |
| 1777452357 | 10° C | 28% | 1027.1 hPa | - | - | - | - |
| 1777451455 | 10° C | 28% | 1027 hPa | - | - | - | - |
| 1777450556 | 10° C | 28% | 1027 hPa | - | - | - | - |
| 1777449657 | 9.44° C | 30% | 1027 hPa | - | - | - | - |
| 1777448758 | 8.89° C | 32% | 1026.8 hPa | - | - | - | - |
| 1777447857 | 8.33° C | 34% | 1026.8 hPa | - | - | - | - |
| 1777446957 | 7.78° C | 35% | 1026.5 hPa | - | - | - | - |
| 1777446057 | 7.78° C | 37% | 1026.3 hPa | - | - | - | - |
| 1777444257 | 7.22° C | 40% | 1026 hPa | - | - | - | - |
| 1777443356 | 6.67° C | 42% | 1025.8 hPa | - | - | - | - |
| 1777442459 | 5.56° C | 44% | 1025.8 hPa | - | - | - | - |
| 1777441556 | 5° C | 46% | 1025.7 hPa | - | - | - | - |
| 1777440656 | 4.44° C | 46% | 1025.8 hPa | - | - | - | - |
| 1777439760 | 3.89° C | 48% | 1025.5 hPa | - | - | - | - |
| 1777438856 | 3.89° C | 53% | 1025.4 hPa | - | - | - | - |
| 1777437956 | 3.89° C | 52% | 1025.2 hPa | - | - | - | - |
| 1777437056 | 3.89° C | 51% | 1025.2 hPa | - | - | - | - |
| 1777436156 | 3.89° C | 50% | 1025.1 hPa | - | - | - | - |
| 1777435256 | 4.44° C | 48% | 1025 hPa | - | - | - | - |
| 1777434355 | 4.44° C | 47% | 1024.9 hPa | - | - | - | - |
* Rain since midnight (hover to see other rain measurements)
** Current wind speed in m/s (hover to see current wind gust speed)